Regional Weather Roundup
Issued by NWS

Home | Current Version | Previous Version | Graphics & Text | Print | Product List | Glossary On
Versions: 1 2 3 4 5 6 7 8 9 10 11 12 13 14 15 16 17 18 19 20 21 22 23 24 25 26 27 28 29 30 31 32 33 34 35 36 37 38 39 40 41 42 43 44 45 46 47 48 49 50
000
ASUS43 KLMK 271002
RWRKY
KENTUCKY REGIONAL WEATHER ROUNDUP
NATIONAL WEATHER SERVICE LOUISVILLE KY
600 AM EDT SAT AUG 27 2016

NOTE "FAIR" INDICATES FEW OR NO CLOUDS BELOW 12,000 FEET
WITH NO SIGNIFICANT WEATHER AND/OR OBSTRUCTIONS TO VISIBILITY.

KYZ001>023-026-027-061>063-070>075-271100-
WESTERN AND SOUTH CENTRAL KENTUCKY

CITY           SKY/WX    TMP DP  RH WIND       PRES   REMARKS
PADUCAH        CLOUDY    72  70  93 S3        30.01F
HENDERSON      CLOUDY    72  68  88 CALM      30.02S
OWENSBORO      CLOUDY    74  74 100 NE5       30.04F
HOPKINSVILLE   MOCLDY    72  71  96 SE5       30.04S
BOWLING GREEN  CLOUDY    73  70  90 CALM      30.05S
GLASGOW        MOCLDY    73  73 100 E3        30.07S
$$

KYZ024-025-028>034-038-045-046-053-271100-
NORTH CENTRAL KENTUCKY

CITY           SKY/WX    TMP DP  RH WIND       PRES   REMARKS
LOUISVILLE/SDF CLOUDY    78  72  81 NE5       30.05F
LOUISVILLE/LOU CLOUDY    77  72  84 CALM      30.07F
FORT KNOX      PTCLDY    73  71  92 E5        30.05F
$$

KYZ035>037-039>044-047>052-055>060-089>105-271100-
NORTHEAST KENTUCKY

CITY           SKY/WX    TMP DP  RH WIND       PRES   REMARKS
LEXINGTON      CLOUDY    74  68  81 SE5       30.09F
COVINGTON      CLOUDY    74  73  97 CALM      30.09F
FRANKFORT      CLOUDY    72  69  90 CALM      30.07F
$$

KYZ054-064>069-076>088-106>120-271100-
SOUTHEAST KENTUCKY

CITY           SKY/WX    TMP DP  RH WIND       PRES   REMARKS
JACKSON        CLEAR     73  69  87 CALM      30.12S
LONDON         CLEAR     70  67  90 CALM      30.11S
SOMERSET       CLOUDY    68  68 100 CALM      30.10F
MIDDLESBORO    FOG       68  68 100 CALM      30.13S VSB 1/4
MONTICELLO     MOSUNNY  N/A N/A N/A CALM      30.11S
$$





USA.gov is the U.S. government's official web portal to all federal, state and local government web resources and services.